ARIANE 40+3 R/B

Satellite information

Favourite Embed

Satellite Type and Status

ROCKET BODYIN ORBIT

Key statistics

Satellite ARIANE 40+3 R/B at a glance.

Uptime

10959

Days in orbit

Revolutions

≈ 15.3

Per day

Orbit

SSO

Sun Synchronous Orbit

Inclination

98.3

Latest

Satellite identification and parameters

Extended collection of information and parameters for ARIANE 40+3 R/B.

Object identification

Identified? True

Debris? False

Object name: ARIANE 40+3 R/B

International designator: 1995-033D

Object number (NORAD): 23608

Object ID (CCSDS): 23608

Country: FRANCE (FR)

Current information (Y/N): Y

RCS size: LARGE

Orbital parameters

Period: 94.034 minutes

Inclination: 98.2901 deg

SMA: 6849.882 km

Apoapsis: 479.119 km

Periapsis: 464.376 km

RAAN: 356.4464 deg

Eccentricy: 0.0010762

Argument of periapsis: 169.7857 deg

Mean anomaly: 190.3602 deg

Mean motion: 15.3136277 rev/day

Mean motion (dot): 0.00014249 rev/day2

B* drag term: 0.00047223 1/REarth

Two-line elements (TLE)

Creation date: July 8, 2025, 2:27 a.m.

Reference frame: TEME

Reference center: EARTH

Epoch: July 7, 2025, 9:01 p.m. UTC

TLE line 0: 0 ARIANE 40+3 R/B

TLE line 1: 1 23608U 95033D 25188.87601811 .00014249 00000-0 47223-3 0 9996

TLE line 2: 2 23608 98.2901 356.4464 0010762 169.7857 190.3602 15.31362770629150

Live tracking on map

Real-time ground track for satellite ARIANE 40+3 R/B.

In-orbit conjunctions

A list of the most updated potential collisions computed for object ARIANE 40+3 R/B.

Target Orbit TCA Probability of collision Miss distance Type
COSMOS 1782 LEO 2024-12-20 10:35:06 0.0002212184 91.0 (m) PAYLOAD

Associated space launch

The Helios program is Europe's military optical reconnaissance system consisting of both a space and a ground segment, which commenced service in 1995, jointly funded by the French, Italian and Spanish governments. The Helios I optical observation satellites, launched in July 1995 and December 1999 respectively, can acquire high resolution images of any point on the globe, with daily revisit capability.

ARIANE 40+3 R/B was lifted into orbit during the mission ‘Ariane 40 | Helios 1A’, on board a Ariane 40 space rocket.

The launch took place on July 7, 1995, 4:23 p.m. from Ariane Launch Area 2.

For more information about the launch, click the button.

Launch to space Ariane 40 | Helios 1A
Ariane 40 | Helios 1A

Agency: N/A

Status: Launch Successful

Launch date: July 7, 1995, 4:23 p.m. UTC

Rocket: Ariane 40

Launch pad: Ariane Launch Area 2

Location: Guiana Space Centre, French Guiana

...

Latest news about this satellite

There are no fresh news available about this satellite. Check back as we update our databases every day.


Newsletter sign-up

Weekly statistics, charts and insights to help you stay on top of the space industry.